Starlink 31985

operational
NORAD ID: 60036 Int'l Des: 2024-111 Owner: SPXS Country: US Constellation: starlink
LEOCIRCULAR

关于 Starlink 31985

正在加载描述...

实时位置

正在加载3D地球...

即将过境

高度历史

Altitude vs Time

uPlot chart will show altitude changes over time

两行轨道根数

1 60036U 24111W 25259.44040565 -.00002369 00000-0 -67947-4 0 9994
2 60036 53.1608 165.0981 0001100 74.6133 285.4990 15.30173911 72294
Epoch: Sep 16, 2025 • Age: 17 hours

当前状态

高度 477.8 km
速度 7.63 km/s
星下点 -9.27°S, 102.01°E
发射日期 Jun 8, 2024
运行时间 1.2 years
类型 internet

技术详情

分类 Payload
质量 730.00 kg
干质量 700.00 kg
总质量 730.00 kg
长度 0.30 m
直径 4.10 m
跨度 29.00 m
形状 Box + pan
制造商 SPXS
平台类型 Starlink V2M
阶段状态 In Orbit
所有者/国家 SPXS/US

大型星座

Loading constellations...